FW8104 Weather Reports


time (UTC)temp
C
wind
direction
speed
KPH
gust
KPH
rain 1hr
cm
rain 24hr
cm
rain mn
cm
humidity
%
barometer
mb
20260507070312 6 125 0.0 0.0 0.00 0.00 0.00 98 1018.6
20260507065809 6 125 0.0 0.0 0.00 0.00 0.00 98 1018.6
20260507065306 6 125 0.0 0.0 0.00 0.00 0.00 98 1018.5
20260507064802 6 125 0.0 0.0 0.00 0.00 0.00 98 1018.4
20260507064301 6 125 0.0 0.0 0.00 0.00 0.00 98 1018.6
20260507063759 6 125 0.0 0.0 0.00 0.00 0.00 98 1018.5
20260507063255 6 125 0.0 0.0 0.00 0.00 0.00 98 1018.6
20260507062752 6 125 0.0 0.0 0.00 0.00 0.00 98 1018.7
20260507062249 6 125 0.0 0.0 0.00 0.00 0.00 98 1018.7
20260507061747 6 125 0.0 0.0 0.00 0.00 0.00 97 1018.7
20260507061244 6 125 0.0 0.0 0.00 0.00 0.00 97 1018.9
20260507060743 6 125 0.0 0.0 0.00 0.00 0.00 97 1019.0
20260507060239 6 125 0.0 0.0 0.00 0.00 0.00 97 1018.7
20260507055735 6 125 0.0 0.0 0.00 0.00 0.00 97 1018.8
20260507055231 7 125 0.0 0.0 0.00 0.00 0.00 96 1018.7
20260507054727 7 125 0.0 0.0 0.00 0.00 0.00 96 1018.7
20260507054224 7 125 0.0 0.0 0.00 0.00 0.00 96 1018.8
20260507053722 7 125 0.0 0.0 0.00 0.00 0.00 96 1018.7
20260507053219 7 125 0.0 0.0 0.00 0.00 0.00 96 1018.7
20260507052718 7 125 0.0 0.0 0.00 0.00 0.00 96 1018.9
20260507052214 7 125 0.0 0.0 0.00 0.00 0.00 95 1018.7
20260507051712 7 125 0.0 0.0 0.00 0.00 0.00 94 1018.7
20260507051209 7 125 0.0 0.0 0.00 0.00 0.00 93 1018.5
20260507050705 7 125 0.0 0.0 0.00 0.00 0.00 92 1018.7
20260507050202 7 125 0.0 0.0 0.00 0.00 0.00 92 1018.5
20260507045659 7 125 0.0 0.0 0.00 0.00 0.00 93 1018.6
20260507045156 7 125 0.0 0.0 0.00 0.00 0.00 92 1018.7
20260507044652 7 125 0.0 0.0 0.00 0.00 0.00 92 1019.0
20260507044149 7 125 0.0 0.0 0.00 0.00 0.00 91 1018.8
20260507043645 7 125 0.0 0.0 0.00 0.00 0.00 91 1018.5
20260507043142 7 124 0.0 0.0 0.00 0.00 0.00 91 1018.7
20260507042639 7 125 0.0 0.0 0.00 0.00 0.00 91 1018.9
20260507042134 7 125 0.0 0.0 0.00 0.00 0.00 90 1018.5
20260507041630 7 125 0.0 0.0 0.00 0.00 0.00 90 1018.6
20260507041121 8 125 0.0 0.0 0.00 0.00 0.00 88 1018.6
20260507040618 8 125 0.0 0.0 0.00 0.00 0.00 88 1018.7
20260507040115 8 125 0.0 0.0 0.00 0.00 0.00 87 1018.5
20260507035611 8 124 0.0 0.0 0.00 0.00 0.00 85 1018.5
20260507035108 8 124 0.0 0.0 0.00 0.00 0.00 84 1018.4
20260507034604 8 124 0.0 0.0 0.00 0.00 0.00 84 1018.4
20260507034102 8 124 0.0 0.0 0.00 0.00 0.00 83 1018.3
20260507033600 9 125 0.0 0.0 0.00 0.00 0.00 81 1018.4
20260507033056 10 125 0.0 0.0 0.00 0.00 0.00 79 1018.1
20260507032554 10 124 0.0 0.0 0.00 0.00 0.00 78 1018.3
20260507032050 10 124 0.0 1.6 0.00 0.00 0.00 77 1018.4
20260507031547 9 124 0.0 0.0 0.00 0.00 0.00 80 1018.5
20260507031044 9 125 0.0 0.0 0.00 0.00 0.00 79 1018.4
20260507030540 9 124 0.0 0.0 0.00 0.00 0.00 78 1018.2
20260507030038 10 124 0.0 0.0 0.00 0.00 0.00 76 1018.1
20260507025535 10 124 0.0 0.0 0.00 0.00 0.00 74 1018.2
20260507025032 11 124 0.0 0.0 0.00 0.00 0.00 72 1018.1
20260507024530 11 123 0.0 0.0 0.00 0.00 0.00 72 1018.0
20260507024027 11 125 0.0 0.0 0.00 0.00 0.00 72 1018.1
20260507023522 12 108 1.6 1.6 0.00 0.00 0.00 67 1018.2
20260507023021 12 68 3.2 3.2 0.00 0.00 0.00 65 1018.1
20260507022517 11 125 1.6 1.6 0.00 0.00 0.00 65 1018.0
20260507022012 12 127 0.0 1.6 0.00 0.00 0.00 65 1018.0
20260507021508 12 128 1.6 1.6 0.00 0.00 0.00 64 1018.0
20260507021005 12 56 3.2 3.2 0.00 0.00 0.00 60 1017.8
20260507020502 12 49 3.2 3.2 0.00 0.00 0.00 60 1017.5
20260507015959 12 92 3.2 3.2 0.00 0.00 0.00 60 1017.5
20260507015458 12 125 1.6 3.2 0.00 0.00 0.00 62 1017.6
20260507014955 12 132 1.6 1.6 0.00 0.00 0.00 63 1017.4
20260507014451 12 134 0.0 0.0 0.00 0.00 0.00 64 1017.4
20260507013947 12 134 0.0 0.0 0.00 0.00 0.00 62 1017.2
20260507013444 12 61 3.2 3.2 0.00 0.00 0.00 61 1017.4
20260507012941 12 139 1.6 1.6 0.00 0.00 0.00 59 1017.3
20260507012438 13 139 0.0 1.6 0.00 0.00 0.00 57 1017.1
20260507011934 13 141 0.0 0.0 0.00 0.00 0.00 57 1017.0
20260507011431 13 142 1.6 1.6 0.00 0.00 0.00 56 1016.9
20260507010926 13 142 0.0 0.0 0.00 0.00 0.00 55 1017.0
20260507010421 14 143 0.0 1.6 0.00 0.00 0.00 54 1017.0
20260507005918 14 88 3.2 3.2 0.00 0.00 0.00 52 1016.7
20260507005415 14 135 1.6 1.6 0.00 0.00 0.00 52 1016.7
20260507004912 15 57 4.8 4.8 0.00 0.00 0.00 51 1016.8
20260507004409 15 113 3.2 4.8 0.00 0.00 0.00 50 1016.9
20260507003906 15 34 4.8 6.4 0.00 0.00 0.00 49 1016.8
20260507003401 15 101 3.2 3.2 0.00 0.00 0.00 49 1016.6
20260507002857 15 73 3.2 4.8 0.00 0.00 0.00 48 1016.9
20260507002353 15 40 6.4 6.4 0.00 0.00 0.00 49 1016.7
20260507001850 15 39 8.0 11.3 0.00 0.00 0.00 49 1016.7
20260507001347 15 32 8.0 11.3 0.00 0.00 0.00 49 1016.8
20260507000844 15 30 9.7 11.3 0.00 0.00 0.00 48 1016.5
20260507000339 15 26 16.1 20.9 0.00 0.00 0.00 47 1016.4
20260506235836 15 3 11.3 12.9 0.00 0.00 0.00 46 1016.5
20260506235333 15 24 16.1 16.1 0.00 0.00 0.00 47 1016.4
20260506234829 15 28 16.1 22.5 0.00 0.00 0.00 47 1016.3
20260506234326 15 14 12.9 16.1 0.00 0.00 0.00 47 1016.2
20260506233824 16 16 14.5 14.5 0.00 0.00 0.00 47 1016.0
20260506233319 16 33 16.1 22.5 0.00 0.00 0.00 46 1015.8
20260506232817 16 334 12.9 16.1 0.00 0.00 0.00 45 1015.9
20260506232312 16 6 17.7 25.7 0.00 0.00 0.00 46 1016.1
20260506231809 16 18 16.1 17.7 0.00 0.00 0.00 47 1016.0
20260506231307 16 29 11.3 16.1 0.00 0.00 0.00 47 1016.0
20260506230804 16 14 17.7 20.9 0.00 0.00 0.00 46 1015.7
20260506230301 16 28 12.9 17.7 0.00 0.00 0.00 46 1015.8
20260506225757 16 14 9.7 11.3 0.00 0.00 0.00 45 1015.8
20260506225254 17 13 16.1 17.7 0.00 0.00 0.00 44 1016.0
20260506224751 16 48 8.0 11.3 0.00 0.00 0.00 45 1015.7
20260506224248 16 25 9.7 12.9 0.00 0.00 0.00 45 1015.7
20260506223744 16 22 11.3 12.9 0.00 0.00 0.00 44 1015.6
20260506223239 16 48 11.3 14.5 0.00 0.00 0.00 46 1015.5
20260506222731 16 44 11.3 14.5 0.00 0.00 0.00 46 1015.8
20260506222227 16 35 16.1 20.9 0.00 0.00 0.00 45 1015.8
20260506221725 16 68 6.4 9.7 0.00 0.00 0.00 44 1015.7
20260506221223 16 40 11.3 12.9 0.00 0.00 0.00 44 1015.8
20260506220720 16 48 16.1 20.9 0.00 0.00 0.00 45 1015.9
20260506220214 16 28 12.9 20.9 0.00 0.00 0.00 44 1016.0
20260506215711 16 355 14.5 16.1 0.00 0.00 0.00 46 1016.0
20260506215207 16 57 19.3 22.5 0.00 0.00 0.00 44 1015.9
20260506214704 16 41 11.3 14.5 0.00 0.00 0.00 45 1016.0
20260506214201 16 27 20.9 24.1 0.00 0.00 0.00 44 1015.9
20260506213659 16 7 12.9 16.1 0.00 0.00 0.00 45 1016.0
20260506213156 16 25 8.0 12.9 0.00 0.00 0.00 46 1016.3
20260506212653 16 22 14.5 16.1 0.00 0.00 0.00 46 1015.8
20260506212148 17 49 16.1 17.7 0.00 0.00 0.00 44 1015.8
20260506211644 16 326 6.4 9.7 0.00 0.00 0.00 47 1015.8
20260506211141 16 54 16.1 22.5 0.00 0.00 0.00 46 1016.1
20260506210638 16 3 9.7 11.3 0.00 0.00 0.00 47 1015.9
20260506210134 16 46 12.9 16.1 0.00 0.00 0.00 46 1016.1
20260506205631 16 40 14.5 16.1 0.00 0.00 0.00 46 1016.2
20260506205126 16 33 14.5 16.1 0.00 0.00 0.00 46 1016.1
20260506204625 16 322 16.1 17.7 0.00 0.00 0.00 45 1016.3
20260506204121 16 19 12.9 16.1 0.00 0.00 0.00 46 1016.4
20260506203620 16 350 12.9 16.1 0.00 0.00 0.00 45 1016.2
20260506203116 16 29 14.5 17.7 0.00 0.00 0.00 44 1016.5
20260506202614 16 47 9.7 16.1 0.00 0.00 0.00 43 1016.7
20260506202110 16 26 14.5 17.7 0.00 0.00 0.00 44 1016.7
20260506201607 16 8 11.3 14.5 0.00 0.00 0.00 43 1016.5
20260506201104 16 3 22.5 25.7 0.00 0.00 0.00 41 1016.7
20260506200600 16 36 16.1 29.0 0.00 0.00 0.00 46 1016.7
20260506200057 16 40 14.5 17.7 0.00 0.00 0.00 47 1016.8
20260506195553 16 50 16.1 17.7 0.00 0.00 0.00 46 1016.8
20260506195050 16 7 12.9 14.5 0.00 0.00 0.00 47 1016.7
20260506194548 16 275 8.0 12.9 0.00 0.00 0.00 48 1016.7
20260506194043 16 354 9.7 11.3 0.00 0.00 0.00 46 1016.8
20260506193541 15 358 19.3 25.7 0.00 0.00 0.00 46 1016.8
20260506193039 16 44 14.5 29.0 0.00 0.00 0.00 47 1016.9
20260506192535 16 29 8.0 9.7 0.00 0.00 0.00 48 1017.1
20260506192031 16 31 12.9 14.5 0.00 0.00 0.00 47 1017.1
20260506191528 16 37 14.5 17.7 0.00 0.00 0.00 47 1017.1
20260506191024 15 44 16.1 24.1 0.00 0.00 0.00 47 1017.5
20260506190521 16 52 6.4 9.7 0.00 0.00 0.00 44 1017.3
20260506190019 15 5 20.9 27.4 0.00 0.00 0.00 46 1017.2
20260506185515 15 19 20.9 25.7 0.00 0.00 0.00 44 1017.4
20260506185012 15 26 17.7 24.1 0.00 0.00 0.00 47 1017.2
20260506184509 15 19 25.7 30.6 0.00 0.00 0.00 46 1017.4
20260506184006 16 8 11.3 14.5 0.00 0.00 0.00 47 1017.5
20260506183503 15 34 4.8 4.8 0.00 0.00 0.00 46 1017.4
20260506182959 15 53 6.4 9.7 0.00 0.00 0.00 47 1018.0
20260506182456 16 31 19.3 24.1 0.00 0.00 0.00 46 1017.8
20260506181953 15 107 8.0 11.3 0.00 0.00 0.00 48 1017.8
20260506181451 15 11 9.7 12.9 0.00 0.00 0.00 48 1017.9
20260506180948 15 17 20.9 24.1 0.00 0.00 0.00 48 1018.2
20260506180444 15 353 12.9 16.1 0.00 0.00 0.00 46 1018.1
20260506175941 15 260 6.4 9.7 0.00 0.00 0.00 47 1018.5
20260506175438 15 39 16.1 17.7 0.00 0.00 0.00 48 1018.6
20260506174934 15 49 8.0 9.7 0.00 0.00 0.00 46 1018.3
20260506174432 15 37 17.7 17.7 0.00 0.00 0.00 48 1018.4
20260506173923 15 48 3.2 4.8 0.00 0.00 0.00 48 1018.6
20260506173420 15 25 6.4 9.7 0.00 0.00 0.00 49 1018.5
20260506172917 15 11 9.7 12.9 0.00 0.00 0.00 48 1018.5
20260506172414 15 38 14.5 20.9 0.00 0.00 0.00 49 1018.7
20260506171911 13 28 6.4 9.7 0.00 0.00 0.00 52 1018.5
20260506171408 14 33 14.5 16.1 0.00 0.00 0.00 52 1018.5
20260506170906 15 128 4.8 4.8 0.00 0.00 0.00 50 1018.7
20260506170401 15 98 6.4 6.4 0.00 0.00 0.00 51 1018.8
20260506165855 14 32 9.7 12.9 0.00 0.00 0.00 52 1018.7
20260506165352 13 35 16.1 17.7 0.00 0.00 0.00 52 1018.9
20260506164848 13 28 11.3 12.9 0.00 0.00 0.00 53 1018.9
20260506164345 13 359 8.0 11.3 0.00 0.00 0.00 55 1018.8
20260506163843 13 8 17.7 20.9 0.00 0.00 0.00 56 1018.7
20260506163337 13 46 12.9 14.5 0.00 0.00 0.00 58 1018.4
20260506162832 13 20 9.7 11.3 0.00 0.00 0.00 56 1018.1
20260506162331 13 43 8.0 12.9 0.00 0.00 0.00 57 1018.0
20260506161828 13 43 8.0 9.7 0.00 0.00 0.00 59 1018.0
20260506161325 13 82 8.0 11.3 0.00 0.00 0.00 58 1017.9
20260506160818 13 344 6.4 6.4 0.00 0.00 0.00 57 1017.6
20260506160314 13 33 11.3 12.9 0.00 0.00 0.00 56 1017.3
20260506155813 12 6 9.7 11.3 0.00 0.00 0.00 58 1017.5
20260506155309 12 52 6.4 9.7 0.00 0.00 0.00 61 1017.6
20260506153421 12 34 6.4 11.3 0.00 0.00 0.00 65 1017.2
20260506152919 12 50 4.8 6.4 0.00 0.00 0.00 65 1017.2
20260506152415 11 2 12.9 14.5 0.00 0.00 0.00 66 1017.4
20260506151915 12 0 8.0 11.3 0.00 0.00 0.00 66 1017.5
20260506151411 11 35 12.9 12.9 0.00 0.00 0.00 67 1017.4
20260506150909 12 19 11.3 14.5 0.00 0.00 0.00 67 1017.2
20260506150404 11 357 8.0 11.3 0.00 0.00 0.00 70 1017.3
20260506145902 11 41 8.0 9.7 0.00 0.00 0.00 69 1017.4
20260506145358 11 16 8.0 11.3 0.00 0.00 0.00 70 1018.0
20260506144856 11 43 4.8 6.4 0.00 0.00 0.00 71 1017.2
20260506144352 11 25 4.8 6.4 0.00 0.00 0.00 72 1017.0
20260506143850 11 48 11.3 12.9 0.00 0.00 0.00 74 1016.9
20260506143347 11 20 16.1 16.1 0.00 0.00 0.00 74 1017.2
20260506142845 11 1 17.7 20.9 0.00 0.00 0.00 74 1017.2
20260506142342 10 112 8.0 11.3 0.00 0.00 0.00 75 1017.1
20260506141841 10 0 6.4 9.7 0.00 0.00 0.00 76 1017.0
20260506141339 10 1 9.7 11.3 0.00 0.00 0.00 77 1017.0
20260506140837 10 66 6.4 6.4 0.00 0.00 0.00 77 1016.9
20260506140333 10 17 12.9 16.1 0.00 0.00 0.00 78 1017.2
20260506135830 10 37 8.0 9.7 0.00 0.00 0.00 77 1017.3
20260506135327 10 43 6.4 11.3 0.00 0.00 0.00 76 1017.2
20260506134823 9 168 3.2 4.8 0.00 0.00 0.00 78 1017.3
20260506134319 9 69 6.4 6.4 0.00 0.00 0.00 78 1017.5
20260506133817 9 51 3.2 4.8 0.00 0.00 0.00 79 1017.4
20260506133314 8 17 4.8 6.4 0.00 0.00 0.00 80 1017.4
20260506132810 8 64 6.4 9.7 0.00 0.00 0.00 80 1017.2
20260506132307 8 102 8.0 9.7 0.00 0.00 0.00 81 1017.3
20260506131806 8 55 6.4 9.7 0.00 0.00 0.00 81 1017.1
20260506131301 8 51 8.0 9.7 0.00 0.00 0.00 82 1017.0
20260506130758 8 64 12.9 16.1 0.00 0.00 0.00 82 1016.9
20260506130255 8 45 4.8 4.8 0.00 0.00 0.00 83 1017.2
20260506125753 8 89 3.2 9.7 0.00 0.00 0.00 84 1017.1
20260506125251 8 41 11.3 12.9 0.00 0.00 0.00 84 1017.0
20260506124749 8 47 6.4 6.4 0.00 0.00 0.00 85 1016.8
20260506124246 8 38 6.4 9.7 0.00 0.00 0.00 85 1017.0
20260506123743 8 70 4.8 6.4 0.00 0.00 0.00 86 1016.8
20260506123242 8 13 9.7 12.9 0.00 0.00 0.00 86 1016.8
20260506122738 8 32 8.0 9.7 0.00 0.00 0.00 87 1016.8
20260506122236 8 18 9.7 12.9 0.00 0.00 0.00 87 1017.2
20260506121734 8 45 19.3 24.1 0.00 0.00 0.00 87 1016.8
20260506121230 8 68 9.7 11.3 0.00 0.00 0.00 88 1017.0
20260506120727 8 12 9.7 12.9 0.00 0.00 0.00 90 1016.7
20260506120225 8 35 3.2 4.8 0.00 0.00 0.00 90 1017.0
20260506115723 8 44 6.4 9.7 0.00 0.00 0.00 90 1017.3
20260506115221 8 23 6.4 9.7 0.00 0.00 0.00 91 1017.2
20260506114718 8 6 8.0 9.7 0.00 0.00 0.00 91 1017.2
20260506114216 8 339 6.4 6.4 0.00 0.00 0.00 92 1017.1
20260506113714 7 7 8.0 9.7 0.00 0.00 0.00 91 1017.1
20260506113211 7 21 9.7 12.9 0.00 0.00 0.00 92 1017.1
20260506112707 7 41 6.4 6.4 0.00 0.00 0.00 93 1016.8
20260506112205 7 13 6.4 6.4 0.00 0.00 0.00 93 1016.6
20260506111702 7 19 6.4 9.7 0.00 0.00 0.00 93 1016.8
20260506111201 7 22 4.8 4.8 0.00 0.00 0.00 93 1016.4
20260506110657 7 16 8.0 9.7 0.00 0.00 0.00 94 1016.4
20260506110155 7 29 6.4 9.7 0.00 0.00 0.00 94 1016.4
20260506105651 7 18 4.8 4.8 0.00 0.00 0.00 94 1016.6
20260506105148 7 24 8.0 9.7 0.00 0.00 0.00 94 1016.5
20260506104646 7 21 9.7 12.9 0.00 0.00 0.00 94 1016.4
20260506104144 7 348 11.3 12.9 0.00 0.00 0.00 94 1016.2
20260506103641 7 34 8.0 11.3 0.00 0.00 0.00 94 1015.9
20260506103137 7 6 12.9 14.5 0.00 0.00 0.00 94 1016.0
20260506102636 7 354 6.4 6.4 0.00 0.00 0.00 94 1015.9
20260506102133 7 20 9.7 11.3 0.00 0.00 0.00 94 1015.5
20260506101629 7 25 9.7 14.5 0.00 0.00 0.00 94 1015.5
20260506101126 7 15 9.7 11.3 0.00 0.00 0.00 94 1015.6
20260506100625 7 344 8.0 9.7 0.00 0.00 0.00 94 1015.5
20260506100122 7 50 3.2 3.2 0.00 0.00 0.00 94 1015.5
20260506095621 7 333 8.0 11.3 0.00 0.00 0.00 94 1015.5
20260506095117 7 17 8.0 9.7 0.00 0.00 0.00 94 1015.2
20260506094615 7 14 9.7 11.3 0.00 0.00 0.00 94 1015.1
20260506094112 7 0 6.4 9.7 0.00 0.00 0.00 94 1015.0
20260506093611 7 17 8.0 9.7 0.00 0.00 0.00 94 1014.9
20260506093108 7 2 9.7 11.3 0.00 0.00 0.00 94 1015.0
20260506092605 7 38 6.4 9.7 0.00 0.00 0.00 93 1014.8
20260506092102 7 13 4.8 4.8 0.00 0.00 0.00 93 1014.8
20260506091600 7 1 8.0 11.3 0.00 0.00 0.00 93 1015.1
20260506091057 7 27 4.8 6.4 0.00 0.00 0.00 93 1015.1
20260506090555 7 11 6.4 6.4 0.00 0.00 0.00 93 1014.9
20260506090051 7 8 3.2 4.8 0.00 0.00 0.00 93 1014.9
20260506085548 7 49 4.8 6.4 0.00 0.00 0.00 92 1014.4
20260506085044 7 32 4.8 6.4 0.00 0.00 0.00 91 1014.5
20260506084542 7 90 3.2 3.2 0.00 0.00 0.00 91 1014.3
20260506084038 8 33 4.8 4.8 0.00 0.00 0.00 90 1013.7
20260506083535 8 9 6.4 6.4 0.00 0.00 0.00 89 1013.8
20260506083032 8 30 6.4 9.7 0.00 0.00 0.00 88 1013.6
20260506082529 8 69 6.4 6.4 0.00 0.00 0.00 88 1013.3
20260506082025 8 41 3.2 4.8 0.00 0.00 0.00 88 1013.5
20260506081523 8 35 8.0 9.7 0.00 0.00 0.00 88 1013.3
20260506081020 8 26 4.8 4.8 0.00 0.00 0.00 89 1013.8
20260506080518 8 102 3.2 3.2 0.00 0.00 0.00 89 1013.5
20260506073501 8 37 6.4 9.7 0.00 0.00 0.00 87 1013.5
20260506072958 8 14 6.4 6.4 0.00 0.00 0.00 88 1013.2
20260506072455 8 341 8.0 9.7 0.00 0.00 0.00 88 1013.2
20260506071953 8 15 8.0 9.7 0.00 0.00 0.00 88 1012.9
20260506071451 8 35 6.4 9.7 0.00 0.00 0.00 89 1012.6
20260506070947 8 29 12.9 14.5 0.00 0.00 0.00 89 1012.9